When you browse on this site, cookies collect data to enhance your experience and personalize the content and advertising you see.
Visit our Privacy Policy to learn more. By continuing to use the site, you agree to this use of cookies and data.
  • en Suisse
  • Liste des pays
  • À 7 jours
  • Température de l'eau
  • Carte météo
  • Widgets météo
  • user-avatar
    Se connecter

    Météo par heure à Sharan

    Ce jour, 17 Février, Lundi

    Heure Température Précipitation Vent Pression Humidité
    00:00 -8°C° 0 mm 1 m/s 584 mmHg 32%
    01:00 -8°C° 0 mm 1 m/s 584 mmHg 35%
    02:00 -8°C° 0 mm 1 m/s 584 mmHg 38%
    03:00 -8°C° 0 mm 1 m/s 584 mmHg 37%
    04:00 -8°C° 0 mm 1 m/s 584 mmHg 36%
    05:00 -8°C° 0 mm 1 m/s 583 mmHg 34%
    06:00 -8°C° 0 mm 1 m/s 584 mmHg 31%
    07:00 -8°C° 0 mm 1 m/s 584 mmHg 28%
    08:00 -7°C° 0 mm 1 m/s 585 mmHg 26%
    09:00 -4°C° 0 mm 1 m/s 586 mmHg 32%
    10:00 -2°C° 0 mm 1 m/s 586 mmHg 38%
    11:00 0°C° 0 mm 1 m/s 587 mmHg 45%
    12:00 +1°C° 0 mm 1 m/s 587 mmHg 48%
    13:00 +1°C° 0 mm 1 m/s 587 mmHg 52%
    14:00 +2°C° 0 mm 1 m/s 587 mmHg 56%
    15:00 +1°C° 0 mm 1 m/s 586 mmHg 48%
    16:00 +1°C° 0 mm 1 m/s 585 mmHg 40%
    17:00 0°C° 0 mm 1 m/s 584 mmHg 32%
    18:00 -1°C° 0 mm 1 m/s 585 mmHg 32%
    19:00 -1°C° 0 mm 1 m/s 585 mmHg 31%
    20:00 -2°C° 0 mm 1 m/s 585 mmHg 30%
    21:00 -2°C° 0 mm 1 m/s 585 mmHg 30%
    22:00 -3°C° 0 mm 1 m/s 584 mmHg 31%
    23:00 -3°C° 0 mm 1 m/s 584 mmHg 32%

    Demain, 18 Février, Mardi

    Heure Température Précipitation Vent Pression Humidité
    00:00 -4°C° 0 mm 1 m/s 584 mmHg 33%
    01:00 -4°C° 0 mm 1 m/s 584 mmHg 34%
    02:00 -4°C° 0 mm 1 m/s 583 mmHg 35%
    03:00 -4°C° 0 mm 1 m/s 583 mmHg 36%
    04:00 -4°C° 0 mm 1 m/s 582 mmHg 37%
    05:00 -4°C° 0 mm 1 m/s 582 mmHg 38%
    06:00 -5°C° 0 mm 0 m/s 582 mmHg 38%
    07:00 -5°C° 0 mm 0 m/s 582 mmHg 38%
    08:00 -5°C° 0 mm 0 m/s 583 mmHg 38%
    09:00 -3°C° 0 mm 0 m/s 583 mmHg 43%
    10:00 -1°C° 0 mm 0 m/s 584 mmHg 49%
    11:00 +1°C° 0 mm 0 m/s 584 mmHg 55%
    12:00 +1°C° 0 mm 0 m/s 584 mmHg 62%
    13:00 +1°C° 0 mm 0 m/s 583 mmHg 70%
    14:00 +2°C° 0 mm 0 m/s 583 mmHg 77%
    15:00 +1°C° 0 mm 0 m/s 582 mmHg 70%
    16:00 0°C° 0 mm 0 m/s 581 mmHg 62%
    17:00 -1°C° 0 mm 0 m/s 580 mmHg 55%
    18:00 -1°C° 0 mm 1 m/s 580 mmHg 53%
    19:00 -2°C° 0 mm 1 m/s 580 mmHg 52%
    20:00 -4°C° 0 mm 1 m/s 580 mmHg 50%
    21:00 -4°C° 0 mm 1 m/s 580 mmHg 52%
    22:00 -4°C° 0 mm 1 m/s 580 mmHg 53%
    23:00 -6°C° 0 mm 1 m/s 580 mmHg 55%

    Après-demain, 19 Février, Mercredi

    Heure Température Précipitation Vent Pression Humidité
    00:00 -6°C° 0 mm 1 m/s 579 mmHg 57%
    01:00 -6°C° 0 mm 1 m/s 579 mmHg 58%
    02:00 -6°C° 0 mm 1 m/s 579 mmHg 60%
    03:00 -7°C° 0 mm 1 m/s 578 mmHg 61%
    04:00 -7°C° 0 mm 0 m/s 578 mmHg 61%
    05:00 -8°C° 0 mm 0 m/s 577 mmHg 61%
    06:00 -8°C° 0 mm 0 m/s 577 mmHg 61%
    07:00 -8°C° 0 mm 0 m/s 578 mmHg 62%
    08:00 -8°C° 0 mm 0 m/s 578 mmHg 62%
    09:00 -6°C° 0 mm 0 m/s 579 mmHg 64%
    10:00 -3°C° 0 mm 1 m/s 580 mmHg 66%
    11:00 -1°C° 0 mm 1 m/s 581 mmHg 67%
    12:00 0°C° 0 mm 1 m/s 580 mmHg 70%
    13:00 0°C° 0 mm 1 m/s 580 mmHg 74%
    14:00 +1°C° 0 mm 1 m/s 580 mmHg 77%
    15:00 0°C° 0.1 mm 1 m/s 580 mmHg 80%
    16:00 0°C° 0.1 mm 1 m/s 580 mmHg 83%
    17:00 0°C° 0.1 mm 1 m/s 580 mmHg 86%
    18:00 -3°C° 0 mm 2 m/s 580 mmHg 86%
    19:00 -4°C° 0 mm 2 m/s 581 mmHg 86%
    20:00 -4°C° 0 mm 2 m/s 581 mmHg 86%
    21:00 -5°C° 0 mm 2 m/s 581 mmHg 87%
    22:00 -5°C° 0 mm 2 m/s 581 mmHg 89%
    23:00 -6°C° 0 mm 2 m/s 582 mmHg 90%

    20 Février, Jeudi

    Heure Température Précipitation Vent Pression Humidité
    00:00 -6°C° 0 mm 2 m/s 582 mmHg 90%
    01:00 -6°C° 0 mm 2 m/s 581 mmHg 89%
    02:00 -6°C° 0 mm 2 m/s 581 mmHg 89%
    03:00 -6°C° 0.1 mm 2 m/s 582 mmHg 90%
    04:00 -7°C° 0.1 mm 3 m/s 582 mmHg 91%
    05:00 -7°C° 0.1 mm 3 m/s 582 mmHg 92%
    06:00 -6°C° 0.1 mm 3 m/s 582 mmHg 91%
    07:00 -6°C° 0.1 mm 3 m/s 583 mmHg 91%
    08:00 -6°C° 0.1 mm 3 m/s 583 mmHg 90%
    09:00 -5°C° 0.1 mm 3 m/s 583 mmHg 90%
    10:00 -4°C° 0.1 mm 3 m/s 584 mmHg 90%
    11:00 -2°C° 0.1 mm 4 m/s 584 mmHg 90%
    12:00 -2°C° 0 mm 4 m/s 584 mmHg 92%
    13:00 -1°C° 0 mm 4 m/s 584 mmHg 94%
    14:00 -1°C° 0 mm 4 m/s 584 mmHg 96%
    15:00 -1°C° 0 mm 4 m/s 583 mmHg 93%
    16:00 -1°C° 0 mm 4 m/s 583 mmHg 89%
    17:00 0°C° 0 mm 3 m/s 583 mmHg 85%
    18:00 -1°C° 0 mm 3 m/s 583 mmHg 82%
    19:00 -2°C° 0 mm 2 m/s 583 mmHg 79%
    20:00 -3°C° 0 mm 2 m/s 583 mmHg 76%
    21:00 -4°C° 0 mm 2 m/s 583 mmHg 75%
    22:00 -2°C° 0 mm 1 m/s 583 mmHg 74%
    23:00 -3°C° 0 mm 1 m/s 583 mmHg 73%

    21 Février, Vendredi

    Heure Température Précipitation Vent Pression Humidité
    00:00 -3°C° 0 mm 1 m/s 583 mmHg 72%
    01:00 -5°C° 0 mm 2 m/s 583 mmHg 71%
    02:00 -5°C° 0 mm 2 m/s 583 mmHg 70%
    03:00 -5°C° 0 mm 2 m/s 583 mmHg 69%
    04:00 -5°C° 0 mm 2 m/s 583 mmHg 67%
    05:00 -3°C° 0 mm 1 m/s 582 mmHg 66%
    06:00 -5°C° 0 mm 2 m/s 583 mmHg 64%
    07:00 -4°C° 0 mm 2 m/s 583 mmHg 62%
    08:00 -4°C° 0 mm 2 m/s 584 mmHg 61%
    09:00 0°C° 0 mm 1 m/s 585 mmHg 67%
    10:00 +1°C° 0 mm 1 m/s 586 mmHg 73%
    11:00 +3°C° 0 mm 1 m/s 586 mmHg 80%
    18:00 +3°C° 0 mm 0 m/s 586 mmHg 67%
    19:00 +3°C° 0 mm 1 m/s 586 mmHg 66%
    20:00 +3°C° 0 mm 1 m/s 586 mmHg 64%
    21:00 +2°C° 0 mm 1 m/s 586 mmHg 64%
    22:00 +1°C° 0 mm 0 m/s 586 mmHg 64%
    23:00 0°C° 0 mm 0 m/s 586 mmHg 63%

    22 Février, Samedi

    Heure Température Précipitation Vent Pression Humidité
    00:00 0°C° 0 mm 0 m/s 586 mmHg 64%
    01:00 +1°C° 0 mm 1 m/s 586 mmHg 64%
    02:00 +1°C° 0 mm 1 m/s 585 mmHg 65%
    03:00 0°C° 0 mm 1 m/s 585 mmHg 66%
    04:00 0°C° 0 mm 1 m/s 585 mmHg 68%
    05:00 0°C° 0 mm 1 m/s 585 mmHg 69%
    06:00 0°C° 0 mm 1 m/s 585 mmHg 71%
    07:00 -1°C° 0 mm 0 m/s 585 mmHg 72%
    08:00 -1°C° 0 mm 0 m/s 586 mmHg 73%
    09:00 0°C° 0 mm 0 m/s 586 mmHg 80%
    10:00 +1°C° 0 mm 0 m/s 587 mmHg 88%
    11:00 +2°C° 0 mm 0 m/s 587 mmHg 95%
    12:00 +2°C° 0 mm 0 m/s 587 mmHg 97%
    13:00 +2°C° 0 mm 0 m/s 586 mmHg 98%
    14:00 +3°C° 0 mm 0 m/s 586 mmHg 100%
    15:00 +2°C° 0 mm 0 m/s 586 mmHg 93%
    16:00 +2°C° 0 mm 0 m/s 585 mmHg 86%
    17:00 +1°C° 0 mm 0 m/s 585 mmHg 79%
    18:00 0°C° 0 mm 0 m/s 585 mmHg 79%
    19:00 -1°C° 0 mm 0 m/s 585 mmHg 79%
    20:00 -2°C° 0 mm 0 m/s 584 mmHg 78%
    21:00 -1°C° 0 mm 1 m/s 584 mmHg 79%
    22:00 -1°C° 0 mm 1 m/s 585 mmHg 79%
    23:00 -1°C° 0 mm 1 m/s 585 mmHg 79%
    Voir plus